Location: Skoghall
(59.3232°N, 13.4653°E)
Time: 21:39:58
(UTC+01:00)

ISS - Pass Details

Date: 04 December 2021
Orbit: 413 x 422 km, 51.6° (Epoch: 23 January)

Event Time Altitude Azimuth Distance (km) Brightness Sun altitude
Rises 17:51:12 0° 263° (W) 2,386 1.8 -18.4°
Reaches altitude 10° 17:54:10 10° 236° (SW) 1,515 0.1 -18.8°
Maximum altitude 17:55:51 13° 206° (SSW) 1,330 -0.8 -19.0°
Drops below altitude 10° 17:57:32 10° 176° (S) 1,509 -0.9 -19.2°
Enters shadow 17:58:35 - 163° (SSE) 1,767 -0.7 -19.3°
